Flag for Germany Weather past 2 weeks in Ibbenbüren, North Rhine-Westphalia, Germany

Now
57 °F

Partly sunny.


Feels Like: 56 °F
Forecast: 44 / 61 °F
Wind: 6 mph from Northwest

Location: Muenster / Osnabrueck

Current Time: May 26, 2015 at 4:08:56 PM

Latest Report: May 26, 2015 at 3:20 PM


Visibility: N/A

Pressure: 30.09 "Hg

Humidity: 55%

Dew point: 41 °F

Location of IbbenbürenLocation

Historic Weather in Ibbenbüren — Graph

°F

Ibbenbüren temperature yesterday

Maximum temperature yesterday: 63 °F (at 2:50 PM)
Minimum temperature yesterday: 48 °F (at 1:20 AM)
Average temperature yesterday: 55 °F

Past Weeks' High & Low Weather Summary

 TemperatureHumidityPressure
High77 °F (May 11, 3:20 PM)100% (May 13, 6:20 AM)30.33 "Hg (May 13, 6:20 AM)
Low37 °F (May 16, 5:20 AM)32% (May 11, 3:50 PM)29.59 "Hg (May 18, 7:20 PM)
Average54 °F70%30.04 "Hg
* Reported May 11 2:20 PM — May 26 2:50 PM, Ibbenbüren, Weather by CustomWeather, © 2015

Note: Actual official high and low records may vary slightly from our data, if they occured in-between our weather recording intervals... More about our weather records

Advertising

Ibbenbüren weather history for previous 24 hours

 ConditionsComfort  
Time TempWeatherWind HumidityBarometerVisibility
2:50 PM
Tue, May 26
55 °FPartly sunny.10 mph55%30.09 "HgN/A
2:20 PM54 °FPartly sunny.12 mph58%30.09 "HgN/A
1:50 PM54 °FPartly sunny.6 mph67%30.09 "HgN/A
1:20 PM57 °FBroken clouds.10 mph67%30.09 "HgN/A
12:50 PM55 °FBroken clouds.12 mph67%30.09 "HgN/A
12:20 PM54 °FScattered clouds.8 mph72%30.09 "HgN/A
11:50 AM52 °FPartly sunny.7 mph82%30.09 "HgN/A
11:20 AM50 °FSprinkles. Broken clouds.9 mph88%30.09 "HgN/A
10:50 AM54 °FPartly sunny.9 mph58%30.09 "HgN/A
10:20 AM54 °FBroken clouds.10 mph58%30.07 "HgN/A
9:50 AM54 °FBroken clouds.8 mph63%30.09 "HgN/A
9:20 AM52 °FPartly sunny.7 mph72%30.09 "HgN/A
8:50 AM52 °FBroken clouds.8 mph72%30.07 "HgN/A
8:20 AM52 °FBroken clouds.8 mph77%30.07 "HgN/A
7:50 AM50 °FScattered clouds.6 mph76%30.07 "HgN/A
7:20 AM48 °FSunny.6 mph87%30.07 "Hg10 mi
6:50 AM46 °FScattered clouds.6 mph87%30.07 "HgN/A
6:20 AM46 °FPartly sunny.5 mph87%30.04 "HgN/A
5:50 AM46 °FPassing clouds.6 mph87%30.04 "HgN/A
5:20 AM46 °FPassing clouds.6 mph87%30.04 "HgN/A
4:50 AM48 °FPassing clouds.6 mph82%30.04 "HgN/A
4:20 AM50 °FPassing clouds.7 mph82%30.04 "HgN/A
3:50 AM50 °FPassing clouds.7 mph76%30.04 "HgN/A
3:20 AM50 °FPassing clouds.8 mph82%30.01 "HgN/A
2:50 AM50 °FPassing clouds.7 mph82%30.01 "HgN/A
2:20 AM50 °FPassing clouds.6 mph82%30.01 "HgN/A
1:50 AM50 °FPassing clouds.5 mph82%30.01 "HgN/A
1:20 AM52 °FPassing clouds.5 mph77%30.01 "HgN/A
12:50 AM52 °FPassing clouds.5 mph77%30.01 "HgN/A
12:20 AM52 °FClear.5 mph77%30.01 "Hg10 mi
11:50 PM
Mon, May 25
52 °FPassing clouds.8 mph72%30.01 "HgN/A
11:20 PM52 °FPartly cloudy.7 mph77%30.01 "HgN/A
10:20 PM54 °FPartly sunny.9 mph72%30.01 "HgN/A
9:50 PM54 °FPartly sunny.6 mph67%29.98 "HgN/A
9:20 PM55 °FBroken clouds.7 mph63%29.98 "HgN/A
8:50 PM55 °FSunny.6 mph59%29.98 "Hg10 mi
8:20 PM55 °FSunny.8 mph59%29.98 "Hg10 mi
7:50 PM57 °FPartly sunny.7 mph55%29.95 "HgN/A
7:20 PM57 °FPartly sunny.9 mph51%29.95 "HgN/A
6:50 PM59 °FPartly sunny.8 mph51%29.95 "HgN/A
6:20 PM59 °FPartly sunny.10 mph48%29.95 "HgN/A
5:50 PM59 °FPartly sunny.10 mph48%29.95 "HgN/A
5:20 PM61 °FPartly sunny.10 mph45%29.95 "HgN/A
4:50 PM61 °FPartly sunny.10 mph42%29.95 "HgN/A
4:20 PM63 °FPartly sunny.10 mph42%29.95 "HgN/A
Weather by CustomWeather, © 2015

See weather overviewHow to use our weather pages